{"data":{"norad_id":64314,"epoch":"2026-09-20T13:51:59.620032Z","epoch_age_seconds":130926,"freshness":"FRESH","line1":"1 64314U 25123Z   26263.57777338  .00010896  00000+0  38283-3 0  9997","line2":"2 64314  69.9996  60.9720 0003289 248.4554 111.6270 15.29589410 70869","mean_motion":15.2958941,"eccentricity":0.0003289,"inclination_deg":69.9996,"raan_deg":60.972,"arg_perigee_deg":248.4554,"mean_anomaly_deg":111.627,"bstar":0.00038283,"rev_number":7086,"period_min":94.142911201248,"perigee_km":474.78412022287,"apogee_km":479.29345485591,"semimajor_km":6855.1757875394,"source":"CELESTRAK","updated_at":"2026-09-21T09:00:35.309875Z"}}